{"data":{"norad_id":54821,"intl_designator":"2022-177B","name":"STARLINK-5385","alt_names":[],"object_type":"PAYLOAD","status":"ACTIVE","operator":null,"country":"US","launch_date":"2022-12-28","launch_site_code":"AFETR","launch_vehicle":null,"mission":null,"orbit_class":"UNKNOWN","rcs_meters":null,"size_class":null,"mass_kg":null,"dimensions":null,"purposes":["comms"],"wikipedia_slug":null,"has_3d_model":false,"image_url":null,"decayed_at":null,"tle_current":{"epoch":"2026-05-25T04:31:10.831584Z","epoch_age_seconds":58153,"freshness":"FRESH","line1":"1 54821U 22177B   26145.18831981  .00000704  00000+0  35102-4 0  9991","line2":"2 54821  43.0040  63.9694 0001311 265.4297  94.6405 15.27576948188628","mean_motion":15.27576948,"eccentricity":0.0001311,"inclination_deg":43.004,"raan_deg":63.9694,"arg_perigee_deg":265.4297,"mean_anomaly_deg":94.6405,"bstar":3.5102e-5,"rev_number":18862,"period_min":94.266937052522,"perigee_km":482.15873214553,"apogee_km":483.95773753611,"semimajor_km":6861.1952348408,"source":"CELESTRAK","updated_at":"2026-05-25T13:38:17.720195Z"}}}